GW6787 Weather Reports


Display with metric or nautical units.
time (UTC)temp
F
wind
direction
speed
MPH
gust
MPH
rain 1hr
in
rain 24hr
in
rain mn
in
humidity
%
barometer
mb
20260508013023 50 117 0.0 2.0 0.00 0.00 0.00 86 1017.4
20260508012506 50 115 1.0 2.0 0.00 0.00 0.00 86 1017.4
20260508012008 50 121 0.0 2.0 0.00 0.00 0.00 86 1017.4
20260508011534 50 121 0.0 2.0 0.00 0.00 0.00 86 1017.5
20260508011007 50 117 0.0 2.0 0.00 0.00 0.00 86 1017.5
20260508010505 50 119 0.0 2.0 0.00 0.00 0.00 86 1017.5
20260508010023 50 119 0.0 2.0 0.00 0.00 0.00 86 1017.5
20260508005504 50 119 0.0 2.0 0.00 0.00 0.00 86 1017.5
20260508005005 50 119 0.0 2.0 0.00 0.00 0.00 86 1017.5
20260508004534 50 119 1.0 3.0 0.00 0.00 0.00 86 1017.6
20260508004006 50 122 0.0 3.0 0.00 0.00 0.00 86 1017.6
20260508003506 50 116 1.0 2.0 0.00 0.00 0.00 86 1017.5
20260508003015 50 126 0.0 2.0 0.00 0.00 0.00 86 1017.6
20260508002507 50 130 0.0 2.0 0.00 0.00 0.00 86 1017.7
20260508002007 50 132 1.0 4.0 0.00 0.00 0.00 86 1017.6
20260508001515 50 108 1.0 4.0 0.00 0.00 0.00 86 1017.7
20260508001007 50 112 1.0 3.0 0.00 0.00 0.00 86 1017.6
20260508000511 50 120 1.0 2.0 0.00 0.00 0.00 86 1017.8
20260508000029 50 142 0.0 2.0 0.00 0.00 0.00 86 1017.7
20260507235506 50 149 1.0 2.0 0.00 0.00 0.00 85 1017.8
20260507235009 50 134 1.0 2.0 0.00 0.00 0.00 85 1017.9
20260507234522 50 146 1.0 3.0 0.00 0.00 0.00 85 1017.9
20260507234006 50 144 1.0 3.0 0.00 0.00 0.00 85 1018.0
20260507233506 50 139 1.0 2.0 0.00 0.00 0.00 85 1018.0
20260507233025 50 142 0.0 2.0 0.00 0.00 0.00 85 1018.1
20260507232507 50 142 0.0 2.0 0.00 0.00 0.00 85 1018.0
20260507232006 50 155 1.0 2.0 0.00 0.00 0.00 85 1018.0
20260507231522 50 137 1.0 4.0 0.00 0.00 0.00 85 1018.0
20260507231011 50 125 1.0 4.0 0.00 0.00 0.00 84 1018.0
20260507230509 50 109 2.0 3.0 0.00 0.00 0.00 84 1018.0
20260507230019 50 133 1.0 4.0 0.00 0.00 0.00 84 1018.0
20260507225508 50 142 0.0 4.0 0.00 0.00 0.00 84 1018.1
20260507225008 50 147 1.0 2.0 0.00 0.00 0.00 84 1018.1
20260507224523 50 125 0.0 4.0 0.00 0.00 0.00 84 1018.1
20260507224007 50 130 0.0 4.0 0.00 0.00 0.00 84 1018.1
20260507223503 50 105 1.0 4.0 0.00 0.00 0.00 84 1018.1
20260507223017 50 142 1.0 3.0 0.00 0.00 0.00 84 1018.1
20260507222511 50 155 0.0 3.0 0.00 0.00 0.00 84 1018.1
20260507222006 50 198 0.0 3.0 0.00 0.00 0.00 83 1018.1
20260507221524 50 159 1.0 3.0 0.00 0.00 0.00 83 1018.0
20260507221004 50 128 0.0 3.0 0.00 0.00 0.00 83 1018.1
20260507220505 50 153 0.0 4.0 0.00 0.00 0.00 83 1018.1
20260507220006 50 152 1.0 4.0 0.00 0.00 0.00 83 1018.1
20260507215504 50 142 1.0 3.0 0.00 0.00 0.00 83 1018.2
20260507215002 50 153 1.0 3.0 0.00 0.00 0.00 83 1018.1
20260507214511 50 138 1.0 6.0 0.00 0.00 0.00 83 1018.2
20260507214007 50 126 1.0 7.0 0.00 0.00 0.00 83 1018.2
20260507213502 50 145 2.0 7.0 0.00 0.00 0.00 83 1018.1
20260507213003 50 122 1.0 7.0 0.00 0.00 0.00 83 1018.1
20260507212502 49 141 2.0 7.0 0.00 0.00 0.00 83 1018.1
20260507212002 49 119 2.0 6.0 0.00 0.00 0.00 84 1018.2
20260507211504 49 110 2.0 4.0 0.00 0.00 0.00 84 1018.1
20260507211004 49 120 2.0 6.0 0.00 0.00 0.00 84 1018.2
20260507210503 49 134 2.0 6.0 0.00 0.00 0.00 84 1018.1
20260507210006 49 111 1.0 4.0 0.00 0.00 0.00 84 1018.1
20260507205504 49 133 0.0 5.0 0.00 0.00 0.00 84 1018.1
20260507205004 49 150 1.0 5.0 0.00 0.00 0.00 84 1018.1
20260507204507 49 136 1.0 4.0 0.00 0.00 0.00 84 1018.1
20260507204004 49 143 0.0 4.0 0.00 0.00 0.00 84 1018.1
20260507203506 49 130 1.0 4.0 0.00 0.00 0.00 83 1018.1
20260507203013 49 162 1.0 3.0 0.00 0.00 0.00 83 1018.0
20260507202502 49 130 0.0 4.0 0.00 0.00 0.00 83 1017.9
20260507202004 49 131 1.0 4.0 0.00 0.00 0.00 83 1017.8
20260507201502 49 121 1.0 4.0 0.00 0.00 0.00 83 1017.8
20260507201003 49 132 1.0 4.0 0.00 0.00 0.00 83 1017.8
20260507200503 49 159 1.0 2.0 0.00 0.00 0.00 83 1017.7
20260507200003 49 160 1.0 3.0 0.00 0.00 0.00 83 1017.7
20260507195503 49 124 1.0 3.0 0.00 0.00 0.00 82 1017.7
20260507195002 49 115 2.0 3.0 0.00 0.00 0.00 82 1017.6
20260507194504 49 117 0.0 3.0 0.00 0.00 0.00 82 1017.7
20260507194003 49 98 1.0 4.0 0.00 0.00 0.00 82 1017.6
20260507193503 50 132 1.0 6.0 0.00 0.00 0.00 82 1017.5
20260507193003 50 114 1.0 6.0 0.00 0.00 0.00 81 1017.4
20260507192505 50 116 2.0 6.0 0.00 0.00 0.00 81 1017.4
20260507192003 50 131 1.0 5.0 0.00 0.00 0.00 81 1017.5
20260507191514 50 98 1.0 6.0 0.00 0.00 0.00 80 1017.4
20260507191003 50 113 2.0 6.0 0.00 0.00 0.00 80 1017.5
20260507190502 50 132 2.0 6.0 0.00 0.00 0.00 80 1017.4
20260507190005 50 122 2.0 7.0 0.00 0.00 0.00 79 1017.5
20260507185502 50 84 3.0 7.0 0.00 0.00 0.00 79 1017.5
20260507185003 50 87 2.0 6.0 0.00 0.00 0.00 79 1017.5
20260507184503 50 125 2.0 7.0 0.00 0.00 0.00 79 1017.4
20260507184004 50 122 3.0 7.0 0.00 0.00 0.00 78 1017.4
20260507183502 51 135 2.0 7.0 0.00 0.00 0.00 78 1017.4
20260507183009 51 117 1.0 7.0 0.00 0.00 0.00 78 1017.4
20260507182505 51 157 2.0 7.0 0.00 0.00 0.00 78 1017.4
20260507182004 51 166 3.0 9.0 0.00 0.00 0.00 77 1017.3
20260507181505 51 133 1.0 9.0 0.00 0.00 0.00 76 1017.4
20260507181004 51 128 2.0 8.0 0.00 0.00 0.00 76 1017.4
20260507180504 51 126 3.0 8.0 0.00 0.00 0.00 75 1017.3
20260507180004 52 128 2.0 8.0 0.00 0.00 0.00 74 1017.4
20260507175506 52 141 2.0 8.0 0.00 0.00 0.00 73 1017.3
20260507175003 53 142 3.0 9.0 0.00 0.00 0.00 72 1017.3
20260507174513 53 68 2.0 9.0 0.00 0.00 0.00 71 1017.3
20260507174002 54 105 4.0 10.0 0.00 0.00 0.00 71 1017.3
20260507173507 54 110 4.0 8.0 0.00 0.00 0.00 70 1017.2
20260507173011 55 126 4.0 8.0 0.00 0.00 0.00 69 1017.3
20260507172503 55 117 2.0 7.0 0.00 0.00 0.00 69 1017.3
20260507172002 55 107 3.0 7.0 0.00 0.00 0.00 69 1017.3
20260507171508 55 131 4.0 7.0 0.00 0.00 0.00 69 1017.3
20260507171003 56 143 3.0 7.0 0.00 0.00 0.00 68 1017.2
20260507170503 56 115 3.0 9.0 0.00 0.00 0.00 67 1017.2
20260507170010 56 111 3.0 9.0 0.00 0.00 0.00 67 1017.2
20260507165510 56 81 3.0 9.0 0.00 0.00 0.00 66 1017.3
20260507165002 56 151 3.0 8.0 0.00 0.00 0.00 66 1017.3
20260507164508 56 111 4.0 8.0 0.00 0.00 0.00 66 1017.4
20260507164004 56 82 3.0 9.0 0.00 0.00 0.00 66 1017.4
20260507163505 56 117 4.0 9.0 0.00 0.00 0.00 64 1017.4
20260507163006 57 191 3.0 8.0 0.00 0.00 0.00 65 1017.4
20260507162503 57 109 3.0 8.0 0.00 0.00 0.00 64 1017.4
20260507162001 57 143 2.0 9.0 0.00 0.00 0.00 64 1017.3
20260507161506 57 150 3.0 9.0 0.00 0.00 0.00 64 1017.4
20260507161005 57 149 4.0 9.0 0.00 0.00 0.00 63 1017.4
20260507160503 57 118 4.0 9.0 0.00 0.00 0.00 64 1017.5
20260507160015 57 126 3.0 9.0 0.00 0.00 0.00 64 1017.4
20260507155502 57 79 4.0 9.0 0.00 0.00 0.00 63 1017.4
20260507155002 57 108 3.0 9.0 0.00 0.00 0.00 63 1017.4
20260507154520 57 107 3.0 9.0 0.00 0.00 0.00 62 1017.4
20260507154010 58 60 3.0 9.0 0.00 0.00 0.00 62 1017.5
20260507153505 58 110 2.0 9.0 0.00 0.00 0.00 63 1017.4
20260507153019 58 140 4.0 9.0 0.00 0.00 0.00 62 1017.5
20260507152509 57 146 3.0 8.0 0.00 0.00 0.00 64 1017.4
20260507152001 57 102 4.0 10.0 0.00 0.00 0.00 63 1017.5
20260507151509 57 103 3.0 12.0 0.00 0.00 0.00 62 1017.5
20260507151003 58 131 3.0 12.0 0.00 0.00 0.00 62 1017.4
20260507150503 58 35 3.0 9.0 0.00 0.00 0.00 62 1017.5
20260507150005 58 115 3.0 8.0 0.00 0.00 0.00 62 1017.5
20260507145507 58 97 2.0 10.0 0.00 0.00 0.00 64 1017.5
20260507145011 57 101 3.0 10.0 0.00 0.00 0.00 63 1017.6
20260507144506 58 107 5.0 10.0 0.00 0.00 0.00 63 1017.5
20260507144002 58 121 4.0 10.0 0.00 0.00 0.00 63 1017.4
20260507143504 58 135 4.0 9.0 0.00 0.00 0.00 63 1017.5
20260507143020 58 66 3.0 9.0 0.00 0.00 0.00 62 1017.6
20260507142503 58 141 3.0 10.0 0.00 0.00 0.00 62 1017.5
20260507142005 58 67 3.0 10.0 0.00 0.00 0.00 63 1017.6
20260507141522 58 115 3.0 11.0 0.00 0.00 0.00 63 1017.6
20260507141003 58 132 5.0 10.0 0.00 0.00 0.00 61 1017.7
20260507140503 58 145 3.0 9.0 0.00 0.00 0.00 63 1017.8
20260507140017 58 72 3.0 9.0 0.00 0.00 0.00 62 1017.8
20260507135502 57 126 4.0 10.0 0.00 0.00 0.00 62 1017.9
20260507135005 58 107 5.0 10.0 0.00 0.00 0.00 61 1017.9
20260507134516 58 76 3.0 8.0 0.00 0.00 0.00 61 1017.9
20260507134005 58 137 4.0 8.0 0.00 0.00 0.00 61 1017.8
20260507133506 58 171 4.0 9.0 0.00 0.00 0.00 62 1017.8
20260507133010 58 174 4.0 9.0 0.00 0.00 0.00 61 1017.8
20260507132507 58 127 2.0 9.0 0.00 0.00 0.00 61 1017.8
20260507132009 58 173 4.0 8.0 0.00 0.00 0.00 58 1017.9
20260507131506 58 51 3.0 8.0 0.00 0.00 0.00 63 1017.8
20260507131005 58 76 3.0 9.0 0.00 0.00 0.00 61 1017.8
20260507130507 58 142 3.0 9.0 0.00 0.00 0.00 60 1017.9
20260507130026 58 148 2.0 8.0 0.00 0.00 0.00 60 1017.8
20260507125506 58 139 2.0 8.0 0.00 0.00 0.00 60 1017.8
20260507125003 58 126 4.0 9.0 0.00 0.00 0.00 61 1017.8
20260507124509 57 98 3.0 9.0 0.00 0.00 0.00 63 1017.9
20260507124002 57 123 3.0 8.0 0.00 0.00 0.00 63 1017.9
20260507123505 57 105 4.0 7.0 0.00 0.00 0.00 61 1017.9
20260507123016 57 85 2.0 9.0 0.00 0.00 0.00 62 1017.9
20260507122512 57 94 2.0 9.0 0.00 0.00 0.00 60 1017.8
20260507122003 58 30 2.0 7.0 0.00 0.00 0.00 62 1017.8
20260507121518 57 161 2.0 9.0 0.00 0.00 0.00 61 1017.8
20260507121007 58 141 2.0 9.0 0.00 0.00 0.00 62 1017.9
20260507120510 57 125 3.0 8.0 0.00 0.00 0.00 61 1017.9
20260507120026 57 51 3.0 10.0 0.00 0.00 0.00 60 1017.9
20260507115506 57 98 4.0 10.0 0.00 0.00 0.00 61 1018.0
20260507115012 57 121 4.0 9.0 0.00 0.00 0.00 60 1017.9
20260507114510 58 108 4.0 9.0 0.00 0.00 0.00 60 1017.9
20260507114003 58 138 3.0 8.0 0.00 0.00 0.00 59 1017.9
20260507113506 58 86 3.0 9.0 0.00 0.00 0.00 59 1017.9
20260507113023 58 146 4.0 9.0 0.00 0.00 0.00 59 1018.0
20260507112509 58 123 3.0 9.0 0.00 0.00 0.00 61 1018.0
20260507112008 58 123 3.0 8.0 0.00 0.00 0.00 61 1018.1
20260507111523 58 169 2.0 8.0 0.00 0.00 0.00 60 1018.1
20260507111003 58 113 3.0 8.0 0.00 0.00 0.00 60 1018.1
20260507110507 58 97 3.0 10.0 0.00 0.00 0.00 61 1018.1
20260507110023 57 101 3.0 10.0 0.00 0.00 0.00 60 1018.1
20260507105511 57 107 2.0 8.0 0.00 0.00 0.00 62 1018.1
20260507105003 57 50 3.0 8.0 0.00 0.00 0.00 62 1018.1
20260507104520 57 119 4.0 8.0 0.00 0.00 0.00 60 1018.0
20260507104010 57 88 2.0 6.0 0.00 0.00 0.00 62 1018.0
20260507103503 57 73 2.0 8.0 0.00 0.00 0.00 61 1018.0
20260507103008 57 126 2.0 10.0 0.00 0.00 0.00 62 1018.1
20260507102503 57 101 4.0 10.0 0.00 0.00 0.00 62 1018.0
20260507102007 57 140 3.0 8.0 0.00 0.00 0.00 61 1018.0
20260507101521 57 140 3.0 8.0 0.00 0.00 0.00 60 1018.0
20260507101011 57 103 2.0 7.0 0.00 0.00 0.00 61 1018.0
20260507100507 57 107 3.0 7.0 0.00 0.00 0.00 62 1018.0
20260507100032 57 135 2.0 7.0 0.00 0.00 0.00 63 1017.9
20260507095507 56 121 2.0 7.0 0.00 0.00 0.00 63 1018.0
20260507095007 56 97 2.0 9.0 0.00 0.00 0.00 64 1018.0
20260507094523 56 115 3.0 7.0 0.00 0.00 0.00 62 1017.9
20260507094003 56 85 2.0 7.0 0.00 0.00 0.00 62 1017.9
20260507093510 56 174 2.0 7.0 0.00 0.00 0.00 63 1017.9
20260507093031 57 128 2.0 6.0 0.00 0.00 0.00 61 1017.8
20260507092512 57 62 2.0 6.0 0.00 0.00 0.00 60 1017.9
20260507092007 57 115 3.0 6.0 0.00 0.00 0.00 62 1017.7
20260507091511 56 142 1.0 8.0 0.00 0.00 0.00 61 1017.8
20260507091003 57 98 2.0 9.0 0.00 0.00 0.00 60 1017.9
20260507090507 57 130 3.0 9.0 0.00 0.00 0.00 61 1017.7
20260507090020 57 126 2.0 6.0 0.00 0.00 0.00 62 1017.7
20260507085506 56 75 2.0 6.0 0.00 0.00 0.00 63 1017.6
20260507085009 55 37 1.0 6.0 0.00 0.00 0.00 67 1017.6
20260507084538 54 65 2.0 6.0 0.00 0.00 0.00 65 1017.6
20260507084007 53 103 1.0 5.0 0.00 0.00 0.00 66 1017.6
20260507083510 53 112 1.0 5.0 0.00 0.00 0.00 66 1017.6
20260507083022 53 135 1.0 4.0 0.00 0.00 0.00 67 1017.6
20260507082506 53 94 1.0 4.0 0.00 0.00 0.00 67 1017.6
20260507082013 52 128 1.0 4.0 0.00 0.00 0.00 69 1017.6
20260507081529 52 98 2.0 4.0 0.00 0.00 0.00 69 1017.5
20260507081010 52 130 1.0 4.0 0.00 0.00 0.00 68 1017.5
20260507080507 52 119 2.0 4.0 0.00 0.00 0.00 68 1017.4
20260507080016 52 130 2.0 3.0 0.00 0.00 0.00 69 1017.4
20260507075506 52 100 1.0 3.0 0.00 0.00 0.00 69 1017.4
20260507075012 52 116 1.0 3.0 0.00 0.00 0.00 68 1017.3
20260507074522 52 58 1.0 4.0 0.00 0.00 0.00 69 1017.2
20260507074005 52 92 0.0 4.0 0.00 0.00 0.00 68 1017.3
20260507073506 52 44 1.0 4.0 0.00 0.00 0.00 66 1017.2
20260507073026 53 119 2.0 5.0 0.00 0.00 0.00 68 1017.3
20260507072509 53 138 2.0 5.0 0.00 0.00 0.00 69 1017.1
20260507072012 53 101 1.0 4.0 0.00 0.00 0.00 67 1017.1
20260507071520 53 84 1.0 4.0 0.00 0.00 0.00 68 1017.1
20260507071004 53 108 1.0 4.0 0.00 0.00 0.00 69 1017.1
20260507070504 52 92 1.0 6.0 0.00 0.00 0.00 69 1017.1
20260507070019 52 117 1.0 6.0 0.00 0.00 0.00 70 1017.1
20260507065502 52 69 1.0 3.0 0.00 0.00 0.00 71 1017.1
20260507065003 51 138 1.0 4.0 0.00 0.00 0.00 71 1017.1
20260507064513 51 121 1.0 4.0 0.00 0.00 0.00 70 1017.1
20260507064004 51 143 2.0 4.0 0.00 0.00 0.00 73 1017.0
20260507063506 50 107 1.0 3.0 0.00 0.00 0.00 74 1017.0
20260507063004 49 84 1.0 3.0 0.00 0.00 0.00 75 1017.1
20260507062503 49 145 1.0 3.0 0.00 0.00 0.00 75 1017.0
20260507062000 48 68 1.0 3.0 0.00 0.00 0.00 76 1017.0
20260507061508 48 32 0.0 3.0 0.00 0.00 0.00 77 1016.9
20260507061007 47 122 1.0 3.0 0.00 0.00 0.00 78 1016.9
20260507060504 47 36 1.0 3.0 0.00 0.00 0.00 79 1017.0
20260507060004 47 78 1.0 2.0 0.00 0.00 0.00 81 1016.9
20260507055506 46 305 0.0 2.0 0.00 0.00 0.00 82 1016.8
20260507055006 46 321 0.0 2.0 0.00 0.00 0.00 82 1016.8
20260507054505 46 321 0.0 2.0 0.00 0.00 0.00 82 1016.7
20260507054002 46 320 0.0 2.0 0.00 0.00 0.00 82 1016.6
20260507053507 46 340 0.0 2.0 0.00 0.00 0.00 82 1016.7
20260507053020 46 38 0.0 2.0 0.00 0.00 0.00 82 1016.6
20260507052504 46 44 0.0 2.0 0.00 0.00 0.00 82 1016.6
20260507052006 45 53 0.0 2.0 0.00 0.00 0.00 82 1016.6
20260507051504 45 14 0.0 2.0 0.00 0.00 0.00 82 1016.6
20260507051006 45 15 0.0 2.0 0.00 0.00 0.00 81 1016.5
20260507050503 45 15 0.0 2.0 0.00 0.00 0.00 81 1016.5
20260507050027 46 15 0.0 2.0 0.00 0.00 0.00 80 1016.5
20260507045506 46 21 0.0 2.0 0.00 0.00 0.00 80 1016.5
20260507045004 46 34 0.0 2.0 0.00 0.00 0.00 79 1016.4
20260507044519 46 69 0.0 2.0 0.00 0.00 0.00 79 1016.3
20260507044004 46 71 0.0 2.0 0.00 0.00 0.00 79 1016.3
20260507043506 46 26 0.0 2.0 0.00 0.00 0.00 79 1016.3
20260507043006 46 26 0.0 2.0 0.00 0.00 0.00 78 1016.3
20260507042508 46 26 0.0 2.0 0.00 0.00 0.00 78 1016.1
20260507042010 46 26 0.0 2.0 0.00 0.00 0.00 78 1016.1
20260507041507 46 75 0.0 3.0 0.00 0.00 0.00 78 1016.1
20260507041003 46 55 0.0 3.0 0.00 0.00 0.00 78 1016.1
20260507040504 46 50 1.0 3.0 0.00 0.00 0.00 78 1016.1
20260507040004 46 63 1.0 3.0 0.00 0.00 0.00 78 1016.0
20260507035504 46 58 0.0 3.0 0.00 0.00 0.00 78 1016.0
20260507035004 46 76 0.0 2.0 0.00 0.00 0.00 78 1016.0
20260507034505 46 63 0.0 3.0 0.00 0.00 0.00 78 1016.0
20260507034008 46 63 1.0 3.0 0.00 0.00 0.00 78 1015.9
20260507033504 46 52 1.0 2.0 0.00 0.00 0.00 78 1016.0
20260507033026 46 57 0.0 2.0 0.00 0.00 0.00 78 1015.9
20260507032503 46 57 0.0 2.0 0.00 0.00 0.00 77 1016.0
20260507032005 46 41 0.0 2.0 0.00 0.00 0.00 76 1015.9
20260507031506 46 46 0.0 2.0 0.00 0.00 0.00 76 1016.0
20260507031003 46 46 0.0 3.0 0.00 0.00 0.00 76 1016.0
20260507030503 46 49 0.0 3.0 0.00 0.00 0.00 76 1016.0
20260507030007 47 28 0.0 4.0 0.00 0.00 0.00 76 1016.0
20260507025502 47 36 1.0 4.0 0.00 0.00 0.00 76 1016.0
20260507025008 47 36 0.0 3.0 0.00 0.00 0.00 75 1016.0
20260507024515 47 27 1.0 4.0 0.00 0.00 0.00 75 1016.1
20260507024004 47 28 0.0 4.0 0.00 0.00 0.00 75 1016.1
20260507023505 47 48 1.0 4.0 0.00 0.00 0.00 75 1016.1
20260507023009 47 89 1.0 4.0 0.00 0.00 0.00 75 1016.0
20260507022506 47 39 1.0 4.0 0.00 0.00 0.00 76 1016.0
20260507022006 47 61 1.0 4.0 0.00 0.00 0.00 76 1016.0
20260507021512 47 28 1.0 4.0 0.00 0.00 0.00 77 1016.0
20260507021003 47 47 1.0 4.0 0.00 0.00 0.00 77 1015.9
20260507020506 47 90 0.0 2.0 0.00 0.00 0.00 76 1015.9
20260507020005 47 40 0.0 4.0 0.00 0.00 0.00 76 1015.8
20260507015506 47 55 1.0 5.0 0.00 0.00 0.00 75 1015.8
20260507015004 47 38 1.0 5.0 0.00 0.00 0.00 75 1015.8
20260507014509 47 30 1.0 5.0 0.00 0.00 0.00 76 1015.8
20260507014002 47 96 1.0 4.0 0.00 0.00 0.00 76 1015.8
20260507013504 47 352 0.0 4.0 0.00 0.00 0.00 76 1015.7